Year,Month,Day,Hour,Minute,Value (Times are PST for temperature in C)
2006,09,27,00,00,14.80
2006,09,27,00,01,14.80
2006,09,27,00,02,14.80
2006,09,27,00,03,14.80
2006,09,27,00,04,14.80
2006,09,27,00,05,14.80
2006,09,27,00,06,14.80
2006,09,27,00,07,14.70
2006,09,27,00,08,14.70
2006,09,27,00,09,14.70
2006,09,27,00,10,14.60
2006,09,27,00,11,14.60
2006,09,27,00,12,14.50
2006,09,27,00,13,14.50
2006,09,27,00,14,14.40
2006,09,27,00,15,14.40
2006,09,27,00,16,14.40
2006,09,27,00,17,14.40
2006,09,27,00,18,14.30
2006,09,27,00,19,14.30
2006,09,27,00,20,14.30
2006,09,27,00,21,14.40
2006,09,27,00,22,14.40
2006,09,27,00,23,14.40
2006,09,27,00,24,14.50
2006,09,27,00,25,14.50
2006,09,27,00,26,14.50
2006,09,27,00,27,14.50
2006,09,27,00,28,14.50
2006,09,27,00,29,14.50
2006,09,27,00,30,14.50
2006,09,27,00,31,14.50
2006,09,27,00,32,14.40
2006,09,27,00,33,14.40
2006,09,27,00,34,14.30
2006,09,27,00,35,14.30
2006,09,27,00,36,14.30
2006,09,27,00,37,14.20
2006,09,27,00,38,14.20
2006,09,27,00,39,14.20
2006,09,27,00,40,14.20
2006,09,27,00,41,14.20
2006,09,27,00,42,14.20
2006,09,27,00,43,14.20
2006,09,27,00,44,14.20
2006,09,27,00,45,14.20
2006,09,27,00,46,14.20
2006,09,27,00,47,14.20
2006,09,27,00,48,14.20
2006,09,27,00,49,14.20
2006,09,27,00,50,14.30
2006,09,27,00,51,14.30
2006,09,27,00,52,14.30
2006,09,27,00,53,14.40
2006,09,27,00,54,14.40
2006,09,27,00,55,14.40
2006,09,27,00,56,14.40
2006,09,27,00,57,14.50
2006,09,27,00,58,14.50
2006,09,27,00,59,14.50
2006,09,27,01,00,14.50
2006,09,27,01,01,14.60
2006,09,27,01,02,14.60
2006,09,27,01,03,14.60
2006,09,27,01,04,14.60
2006,09,27,01,05,14.60
2006,09,27,01,06,14.60
2006,09,27,01,07,14.70
2006,09,27,01,08,14.70
2006,09,27,01,09,14.70
2006,09,27,01,10,14.70
2006,09,27,01,11,14.80
2006,09,27,01,12,14.80
2006,09,27,01,13,14.80
2006,09,27,01,14,14.80
2006,09,27,01,15,14.80
2006,09,27,01,16,14.80
2006,09,27,01,17,14.80
2006,09,27,01,18,14.80
2006,09,27,01,19,14.80
2006,09,27,01,20,14.80
2006,09,27,01,21,14.80
2006,09,27,01,22,14.80
2006,09,27,01,23,14.80
2006,09,27,01,24,14.80
2006,09,27,01,25,14.80
2006,09,27,01,26,14.80
2006,09,27,01,27,14.80
2006,09,27,01,28,14.80
2006,09,27,01,29,14.80
2006,09,27,01,30,14.80
2006,09,27,01,31,14.80
2006,09,27,01,32,14.80
2006,09,27,01,33,14.80
2006,09,27,01,34,14.70
2006,09,27,01,35,14.70
2006,09,27,01,36,14.70
2006,09,27,01,37,14.70
2006,09,27,01,38,14.60
2006,09,27,01,39,14.60
2006,09,27,01,40,14.60
2006,09,27,01,41,14.60
2006,09,27,01,42,14.50
2006,09,27,01,43,14.50
2006,09,27,01,44,14.50
2006,09,27,01,45,14.50
2006,09,27,01,46,14.50
2006,09,27,01,47,14.40
2006,09,27,01,48,14.40
2006,09,27,01,49,14.40
2006,09,27,01,50,14.40
2006,09,27,01,51,14.40
2006,09,27,01,52,14.40
2006,09,27,01,53,14.40
2006,09,27,01,54,14.40
2006,09,27,01,55,14.40
2006,09,27,01,56,14.40
2006,09,27,01,57,14.40
2006,09,27,01,58,14.40
2006,09,27,01,59,14.40
2006,09,27,02,00,14.40
2006,09,27,02,01,14.40
2006,09,27,02,02,14.40
2006,09,27,02,03,14.40
2006,09,27,02,04,14.40
2006,09,27,02,05,14.40
2006,09,27,02,06,14.40
2006,09,27,02,07,14.40
2006,09,27,02,08,14.40
2006,09,27,02,09,14.30
2006,09,27,02,10,14.30
2006,09,27,02,11,14.30
2006,09,27,02,12,14.30
2006,09,27,02,13,14.20
2006,09,27,02,14,14.20
2006,09,27,02,15,14.20
2006,09,27,02,16,14.20
2006,09,27,02,17,14.20
2006,09,27,02,18,14.20
2006,09,27,02,19,14.20
2006,09,27,02,20,14.20
2006,09,27,02,21,14.10
2006,09,27,02,22,14.10
2006,09,27,02,23,14.10
2006,09,27,02,24,14.10
2006,09,27,02,25,14.10
2006,09,27,02,26,14.10
2006,09,27,02,27,14.00
2006,09,27,02,28,14.00
2006,09,27,02,29,14.00
2006,09,27,02,30,13.90
2006,09,27,02,31,13.90
2006,09,27,02,32,13.90
2006,09,27,02,33,13.90
2006,09,27,02,34,13.90
2006,09,27,02,35,13.90
2006,09,27,02,36,13.90
2006,09,27,02,37,13.90
2006,09,27,02,38,13.90
2006,09,27,02,39,14.00
2006,09,27,02,40,14.00
2006,09,27,02,41,14.00
2006,09,27,02,42,14.10
2006,09,27,02,43,14.10
2006,09,27,02,44,14.20
2006,09,27,02,45,14.20
2006,09,27,02,46,14.20
2006,09,27,02,47,14.20
2006,09,27,02,48,14.20
2006,09,27,02,49,14.20
2006,09,27,02,50,14.20
2006,09,27,02,51,14.20
2006,09,27,02,52,14.20
2006,09,27,02,53,14.20
2006,09,27,02,54,14.20
2006,09,27,02,55,14.20
2006,09,27,02,56,14.20
2006,09,27,02,57,14.30
2006,09,27,02,58,14.30
2006,09,27,02,59,14.30
2006,09,27,03,00,14.30
2006,09,27,03,01,14.40
2006,09,27,03,02,14.40
2006,09,27,03,03,14.40
2006,09,27,03,04,14.40
2006,09,27,03,05,14.40
2006,09,27,03,06,14.40
2006,09,27,03,07,14.50
2006,09,27,03,08,14.50
2006,09,27,03,09,14.50
2006,09,27,03,10,14.50
2006,09,27,03,11,14.50
2006,09,27,03,12,14.40
2006,09,27,03,13,14.40
2006,09,27,03,14,14.40
2006,09,27,03,15,14.30
2006,09,27,03,16,14.30
2006,09,27,03,17,14.30
2006,09,27,03,18,14.30
2006,09,27,03,19,14.30
2006,09,27,03,20,14.40
2006,09,27,03,21,14.40
2006,09,27,03,22,14.40
2006,09,27,03,23,14.40
2006,09,27,03,24,14.40
2006,09,27,03,25,14.40
2006,09,27,03,26,14.50
2006,09,27,03,27,14.50
2006,09,27,03,28,14.50
2006,09,27,03,29,14.50
2006,09,27,03,30,14.50
2006,09,27,03,31,14.50
2006,09,27,03,32,14.50
2006,09,27,03,33,14.50
2006,09,27,03,34,14.50
2006,09,27,03,35,14.50
2006,09,27,03,36,14.60
2006,09,27,03,37,14.60
2006,09,27,03,38,14.60
2006,09,27,03,39,14.70
2006,09,27,03,40,14.70
2006,09,27,03,41,14.70
2006,09,27,03,42,14.70
2006,09,27,03,43,14.80
2006,09,27,03,44,14.80
2006,09,27,03,45,14.80
2006,09,27,03,46,14.80
2006,09,27,03,47,14.80
2006,09,27,03,48,14.80
2006,09,27,03,49,14.80
2006,09,27,03,50,14.80
2006,09,27,03,51,14.80
2006,09,27,03,52,14.70
2006,09,27,03,53,14.70
2006,09,27,03,54,14.70
2006,09,27,03,55,14.70
2006,09,27,03,56,14.70
2006,09,27,03,57,14.70
2006,09,27,03,58,14.60
2006,09,27,03,59,14.60
2006,09,27,04,00,14.60
2006,09,27,04,01,14.60
2006,09,27,04,02,14.50
2006,09,27,04,03,14.50
2006,09,27,04,04,14.50
2006,09,27,04,05,14.40
2006,09,27,04,06,14.40
2006,09,27,04,07,14.40
2006,09,27,04,08,14.30
2006,09,27,04,09,14.30
2006,09,27,04,10,14.30
2006,09,27,04,11,14.20
2006,09,27,04,12,14.20
2006,09,27,04,13,14.20
2006,09,27,04,14,14.20
2006,09,27,04,15,14.20
2006,09,27,04,16,14.20
2006,09,27,04,17,14.20
2006,09,27,04,18,14.20
2006,09,27,04,19,14.10
2006,09,27,04,20,14.10
2006,09,27,04,21,14.00
2006,09,27,04,22,14.00
2006,09,27,04,23,14.00
2006,09,27,04,24,14.00
2006,09,27,04,25,14.00
2006,09,27,04,26,14.00
2006,09,27,04,27,14.00
2006,09,27,04,28,14.10
2006,09,27,04,29,14.10
2006,09,27,04,30,14.10
2006,09,27,04,31,14.10
2006,09,27,04,32,14.10
2006,09,27,04,33,14.10
2006,09,27,04,34,14.10
2006,09,27,04,35,14.10
2006,09,27,04,36,14.20
2006,09,27,04,37,14.20
2006,09,27,04,38,14.20
2006,09,27,04,39,14.20
2006,09,27,04,40,14.20
2006,09,27,04,41,14.20
2006,09,27,04,42,14.20
2006,09,27,04,43,14.10
2006,09,27,04,44,14.10
2006,09,27,04,45,14.10
2006,09,27,04,46,14.20
2006,09,27,04,47,14.20
2006,09,27,04,48,14.20
2006,09,27,04,49,14.20
2006,09,27,04,50,14.20
2006,09,27,04,51,14.20
2006,09,27,04,52,14.20
2006,09,27,04,53,14.20
2006,09,27,04,54,14.20
2006,09,27,04,55,14.20
2006,09,27,04,56,14.20
2006,09,27,04,57,14.20
2006,09,27,04,58,14.20
2006,09,27,04,59,14.20
2006,09,27,05,00,14.20
2006,09,27,05,01,14.20
2006,09,27,05,02,14.20
2006,09,27,05,03,14.20
2006,09,27,05,04,14.20
2006,09,27,05,05,14.20
2006,09,27,05,06,14.20
2006,09,27,05,07,14.20
2006,09,27,05,08,14.20
2006,09,27,05,09,14.20
2006,09,27,05,10,14.20
2006,09,27,05,11,14.20
2006,09,27,05,12,14.30
2006,09,27,05,13,14.20
2006,09,27,05,14,14.20
2006,09,27,05,15,14.20
2006,09,27,05,16,14.20
2006,09,27,05,17,14.20
2006,09,27,05,18,14.20
2006,09,27,05,19,14.20
2006,09,27,05,20,14.20
2006,09,27,05,21,14.20
2006,09,27,05,22,14.20
2006,09,27,05,23,14.20
2006,09,27,05,24,14.20
2006,09,27,05,25,14.20
2006,09,27,05,26,14.20
2006,09,27,05,27,14.20
2006,09,27,05,28,14.20
2006,09,27,05,29,14.20
2006,09,27,05,30,14.20
2006,09,27,05,31,14.20
2006,09,27,05,32,14.20
2006,09,27,05,33,14.20
2006,09,27,05,34,14.20
2006,09,27,05,35,14.20
2006,09,27,05,36,14.20
2006,09,27,05,37,14.20
2006,09,27,05,38,14.20
2006,09,27,05,39,14.20
2006,09,27,05,40,14.20
2006,09,27,05,41,14.20
2006,09,27,05,42,14.20
2006,09,27,05,43,14.20
2006,09,27,05,44,14.20
2006,09,27,05,45,14.20
2006,09,27,05,46,14.20
2006,09,27,05,47,14.20
2006,09,27,05,48,14.20
2006,09,27,05,49,14.20
2006,09,27,05,50,14.20
2006,09,27,05,51,14.20
2006,09,27,05,52,14.20
2006,09,27,05,53,14.20
2006,09,27,05,54,14.20
2006,09,27,05,55,14.20
2006,09,27,05,56,14.10
2006,09,27,05,57,14.10
2006,09,27,05,58,14.10
2006,09,27,05,59,14.10
2006,09,27,06,00,14.10
2006,09,27,06,01,14.10
2006,09,27,06,02,14.00
2006,09,27,06,03,14.00
2006,09,27,06,04,14.00
2006,09,27,06,05,14.00
2006,09,27,06,06,14.00
2006,09,27,06,07,13.90
2006,09,27,06,08,13.90
2006,09,27,06,09,13.90
2006,09,27,06,10,13.90
2006,09,27,06,11,13.80
2006,09,27,06,12,13.80
2006,09,27,06,13,13.80
2006,09,27,06,14,13.80
2006,09,27,06,15,13.80
2006,09,27,06,16,13.80
2006,09,27,06,17,13.70
2006,09,27,06,18,13.70
2006,09,27,06,19,13.70
2006,09,27,06,20,13.70
2006,09,27,06,21,13.70
2006,09,27,06,22,13.70
2006,09,27,06,23,13.70
2006,09,27,06,24,13.70
2006,09,27,06,25,13.70
2006,09,27,06,26,13.70
2006,09,27,06,27,13.70
2006,09,27,06,28,13.70
2006,09,27,06,29,13.70
2006,09,27,06,30,13.70
2006,09,27,06,31,13.70
2006,09,27,06,32,13.60
2006,09,27,06,33,13.60
2006,09,27,06,34,13.60
2006,09,27,06,35,13.60
2006,09,27,06,36,13.60
2006,09,27,06,37,13.60
2006,09,27,06,38,13.60
2006,09,27,06,39,13.50
2006,09,27,06,40,13.50
2006,09,27,06,41,13.50
2006,09,27,06,42,13.50
2006,09,27,06,43,13.40
2006,09,27,06,44,13.40
2006,09,27,06,45,13.40
2006,09,27,06,46,13.40
2006,09,27,06,47,13.40
2006,09,27,06,48,13.30
2006,09,27,06,49,13.30
2006,09,27,06,50,13.30
2006,09,27,06,51,13.30
2006,09,27,06,52,13.30
2006,09,27,06,53,13.30
2006,09,27,06,54,13.30
2006,09,27,06,55,13.30
2006,09,27,06,56,13.30
2006,09,27,06,57,13.30
2006,09,27,06,58,13.30
2006,09,27,06,59,13.30
2006,09,27,07,00,13.30
2006,09,27,07,01,13.30
2006,09,27,07,02,13.30
2006,09,27,07,03,13.30
2006,09,27,07,04,13.30
2006,09,27,07,05,13.30
2006,09,27,07,06,13.30
2006,09,27,07,07,13.30
2006,09,27,07,08,13.30
2006,09,27,07,09,13.30
2006,09,27,07,10,13.30
2006,09,27,07,11,13.20
2006,09,27,07,12,13.20
2006,09,27,07,13,13.20
2006,09,27,07,14,13.20
2006,09,27,07,15,13.20
2006,09,27,07,16,13.20
2006,09,27,07,17,13.20
2006,09,27,07,18,13.10
2006,09,27,07,19,13.10
2006,09,27,07,20,13.10
2006,09,27,07,21,13.10
2006,09,27,07,22,13.10
2006,09,27,07,23,13.10
2006,09,27,07,24,13.10
2006,09,27,07,25,13.10
2006,09,27,07,26,13.10
2006,09,27,07,27,13.10
2006,09,27,07,28,13.10
2006,09,27,07,29,13.10
2006,09,27,07,30,13.10
2006,09,27,07,31,13.10
2006,09,27,07,32,13.10
2006,09,27,07,33,13.10
2006,09,27,07,34,13.10
2006,09,27,07,35,13.20
2006,09,27,07,36,13.20
2006,09,27,07,37,13.20
2006,09,27,07,38,13.20
2006,09,27,07,39,13.30
2006,09,27,07,40,13.30
2006,09,27,07,41,13.30
2006,09,27,07,42,13.30
2006,09,27,07,43,13.30
2006,09,27,07,44,13.30
2006,09,27,07,45,13.30
2006,09,27,07,46,13.30
2006,09,27,07,47,13.30
2006,09,27,07,48,13.30
2006,09,27,07,49,13.30
2006,09,27,07,50,13.30
2006,09,27,07,51,13.30
2006,09,27,07,52,13.30
2006,09,27,07,53,13.40
2006,09,27,07,54,13.40
2006,09,27,07,55,13.40
2006,09,27,07,56,13.40
2006,09,27,07,57,13.40
2006,09,27,07,58,13.40
2006,09,27,07,59,13.40
2006,09,27,08,00,13.40
2006,09,27,08,01,13.40
2006,09,27,08,02,13.40
2006,09,27,08,03,13.40
2006,09,27,08,04,13.50
2006,09,27,08,05,13.50
2006,09,27,08,06,13.50
2006,09,27,08,07,13.50
2006,09,27,08,08,13.60
2006,09,27,08,09,13.60
2006,09,27,08,10,13.60
2006,09,27,08,11,13.70
2006,09,27,08,12,13.70
2006,09,27,08,13,13.70
2006,09,27,08,14,13.70
2006,09,27,08,15,13.80
2006,09,27,08,16,13.80
2006,09,27,08,17,13.90
2006,09,27,08,18,13.90
2006,09,27,08,19,13.90
2006,09,27,08,20,14.00
2006,09,27,08,21,14.00
2006,09,27,08,22,14.00
2006,09,27,08,23,14.10
2006,09,27,08,24,14.10
2006,09,27,08,25,14.10
2006,09,27,08,26,14.20
2006,09,27,08,27,14.20
2006,09,27,08,28,14.20
2006,09,27,08,29,14.20
2006,09,27,08,30,14.30
2006,09,27,08,31,14.30
2006,09,27,08,32,14.30
2006,09,27,08,33,14.40
2006,09,27,08,34,14.50
2006,09,27,08,35,14.50
2006,09,27,08,36,14.50
2006,09,27,08,37,14.60
2006,09,27,08,38,14.60
2006,09,27,08,39,14.70
2006,09,27,08,40,14.70
2006,09,27,08,41,14.80
2006,09,27,08,42,14.80
2006,09,27,08,43,14.80
2006,09,27,08,44,14.80
2006,09,27,08,45,14.80
2006,09,27,08,46,14.80
2006,09,27,08,47,14.80
2006,09,27,08,48,14.80
2006,09,27,08,49,14.80
2006,09,27,08,50,14.80
2006,09,27,08,51,14.80
2006,09,27,08,52,14.80
2006,09,27,08,53,14.80
2006,09,27,08,54,14.90
2006,09,27,08,55,14.90
2006,09,27,08,56,14.90
2006,09,27,08,57,14.90
2006,09,27,08,58,14.90
2006,09,27,08,59,14.90
2006,09,27,09,00,15.00
2006,09,27,09,01,15.00
2006,09,27,09,02,15.00
2006,09,27,09,03,15.00
2006,09,27,09,04,15.00
2006,09,27,09,05,15.10
2006,09,27,09,06,15.10
2006,09,27,09,07,15.10
2006,09,27,09,08,15.10
2006,09,27,09,09,15.20
2006,09,27,09,10,15.20
2006,09,27,09,11,15.20
2006,09,27,09,12,15.30
2006,09,27,09,13,15.30
2006,09,27,09,14,15.30
2006,09,27,09,15,15.40
2006,09,27,09,16,15.40
2006,09,27,09,17,15.50
2006,09,27,09,18,15.50
2006,09,27,09,19,15.50
2006,09,27,09,20,15.60
2006,09,27,09,21,15.60
2006,09,27,09,22,15.70
2006,09,27,09,23,15.70
2006,09,27,09,24,15.70
2006,09,27,09,25,15.80
2006,09,27,09,26,15.80
2006,09,27,09,27,15.80
2006,09,27,09,28,15.90
2006,09,27,09,29,15.90
2006,09,27,09,30,16.00
2006,09,27,09,31,16.10
2006,09,27,09,32,16.10
2006,09,27,09,33,16.20
2006,09,27,09,34,16.30
2006,09,27,09,35,16.30
2006,09,27,09,36,16.40
2006,09,27,09,37,16.40
2006,09,27,09,38,16.50
2006,09,27,09,39,16.60
2006,09,27,09,40,16.70
2006,09,27,09,41,16.70
2006,09,27,09,42,16.80
2006,09,27,09,43,16.90
2006,09,27,09,44,17.00
2006,09,27,09,45,17.00
2006,09,27,09,46,17.10
2006,09,27,09,47,17.10
2006,09,27,09,48,17.20
2006,09,27,09,49,17.20
2006,09,27,09,50,17.30
2006,09,27,09,51,17.30
2006,09,27,09,52,17.40
2006,09,27,09,53,17.40
2006,09,27,09,54,17.50
2006,09,27,09,55,17.50
2006,09,27,09,56,17.60
2006,09,27,09,57,17.70
2006,09,27,09,58,17.80
2006,09,27,09,59,17.80
2006,09,27,10,00,17.90
2006,09,27,10,01,17.90
2006,09,27,10,02,17.90
2006,09,27,10,03,18.10
2006,09,27,10,04,18.10
2006,09,27,10,05,18.10
2006,09,27,10,06,18.20
2006,09,27,10,07,18.20
2006,09,27,10,08,18.30
2006,09,27,10,09,18.30
2006,09,27,10,10,18.40
2006,09,27,10,11,18.40
2006,09,27,10,12,18.50
2006,09,27,10,13,18.60
2006,09,27,10,14,18.60
2006,09,27,10,15,18.60
2006,09,27,10,16,18.60
2006,09,27,10,17,18.70
2006,09,27,10,18,18.70
2006,09,27,10,19,18.70
2006,09,27,10,20,18.80
2006,09,27,10,21,18.80
2006,09,27,10,22,18.90
2006,09,27,10,23,18.90
2006,09,27,10,24,18.90
2006,09,27,10,25,18.90
2006,09,27,10,26,19.00
2006,09,27,10,27,19.10
2006,09,27,10,28,19.10
2006,09,27,10,29,19.10
2006,09,27,10,30,19.10
2006,09,27,10,31,19.10
2006,09,27,10,32,19.20
2006,09,27,10,33,19.30
2006,09,27,10,34,19.30
2006,09,27,10,35,19.40
2006,09,27,10,36,19.40
2006,09,27,10,37,19.50
2006,09,27,10,38,19.50
2006,09,27,10,39,19.50
2006,09,27,10,40,19.60
2006,09,27,10,41,19.60
2006,09,27,10,42,19.60
2006,09,27,10,43,19.70
2006,09,27,10,44,19.80
2006,09,27,10,45,19.80
2006,09,27,10,46,19.90
2006,09,27,10,47,19.90
2006,09,27,10,48,20.00
2006,09,27,10,49,20.10
2006,09,27,10,50,20.20
2006,09,27,10,51,20.20
2006,09,27,10,52,20.30
2006,09,27,10,53,20.40
2006,09,27,10,54,20.40
2006,09,27,10,55,20.50
2006,09,27,10,56,20.50
2006,09,27,10,57,20.60
2006,09,27,10,58,20.60
2006,09,27,10,59,20.60
2006,09,27,11,00,20.60
2006,09,27,11,01,20.60
2006,09,27,11,02,20.60
2006,09,27,11,03,20.60
2006,09,27,11,04,20.70
2006,09,27,11,05,20.70
2006,09,27,11,06,20.70
2006,09,27,11,07,20.80
2006,09,27,11,08,20.80
2006,09,27,11,09,20.90
2006,09,27,11,10,20.90
2006,09,27,11,11,21.00
2006,09,27,11,12,21.00
2006,09,27,11,13,21.00
2006,09,27,11,14,21.00
2006,09,27,11,15,21.10
2006,09,27,11,16,21.10
2006,09,27,11,17,21.10
2006,09,27,11,18,21.20
2006,09,27,11,19,21.30
2006,09,27,11,20,21.30
2006,09,27,11,21,21.30
2006,09,27,11,22,21.40
2006,09,27,11,23,21.40
2006,09,27,11,24,21.60
2006,09,27,11,25,21.60
2006,09,27,11,26,21.60
2006,09,27,11,27,21.60
2006,09,27,11,28,21.60
2006,09,27,11,29,21.60
2006,09,27,11,30,21.70
2006,09,27,11,31,21.70
2006,09,27,11,32,21.80
2006,09,27,11,33,21.80
2006,09,27,11,34,21.90
2006,09,27,11,35,21.90
2006,09,27,11,36,22.00
2006,09,27,11,37,22.00
2006,09,27,11,38,22.00
2006,09,27,11,39,22.00
2006,09,27,11,40,22.00
2006,09,27,11,41,22.10
2006,09,27,11,42,22.20
2006,09,27,11,43,22.20
2006,09,27,11,44,22.20
2006,09,27,11,45,22.20
2006,09,27,11,46,22.20
2006,09,27,11,47,22.20
2006,09,27,11,48,22.20
2006,09,27,11,49,22.30
2006,09,27,11,50,22.20
2006,09,27,11,51,22.20
2006,09,27,11,52,22.20
2006,09,27,11,53,22.10
2006,09,27,11,54,22.10
2006,09,27,11,55,22.10
2006,09,27,11,56,22.20
2006,09,27,11,57,22.20
2006,09,27,11,58,22.20
2006,09,27,11,59,22.20
2006,09,27,12,00,22.20
2006,09,27,12,01,22.30
2006,09,27,12,02,22.30
2006,09,27,12,03,22.40
2006,09,27,12,04,22.40
2006,09,27,12,05,22.50
2006,09,27,12,06,22.50
2006,09,27,12,07,22.60
2006,09,27,12,08,22.70
2006,09,27,12,09,22.80
2006,09,27,12,10,22.80
2006,09,27,12,11,22.80
2006,09,27,12,12,22.70
2006,09,27,12,13,22.70
2006,09,27,12,14,22.80
2006,09,27,12,15,22.70
2006,09,27,12,16,22.70
2006,09,27,12,17,22.70
2006,09,27,12,18,22.70
2006,09,27,12,19,22.70
2006,09,27,12,20,22.80
2006,09,27,12,21,22.90
2006,09,27,12,22,22.90
2006,09,27,12,23,23.00
2006,09,27,12,24,23.10
2006,09,27,12,25,23.30
2006,09,27,12,26,23.30
2006,09,27,12,27,23.40
2006,09,27,12,28,23.40
2006,09,27,12,29,23.40
2006,09,27,12,30,23.40
2006,09,27,12,31,23.40
2006,09,27,12,32,23.40
2006,09,27,12,33,23.40
2006,09,27,12,34,23.40
2006,09,27,12,35,23.50
2006,09,27,12,36,23.60
2006,09,27,12,37,23.70
2006,09,27,12,38,23.70
2006,09,27,12,39,23.70
2006,09,27,12,40,23.70
2006,09,27,12,41,23.80
2006,09,27,12,42,23.80
2006,09,27,12,43,23.80
2006,09,27,12,44,23.80
2006,09,27,12,45,23.80
2006,09,27,12,46,23.70
2006,09,27,12,47,23.70
2006,09,27,12,48,23.60
2006,09,27,12,49,23.60
2006,09,27,12,50,23.60
2006,09,27,12,51,23.60
2006,09,27,12,52,23.60
2006,09,27,12,53,23.50
2006,09,27,12,54,23.40
2006,09,27,12,55,23.50
2006,09,27,12,56,23.60
2006,09,27,12,57,23.60
2006,09,27,12,58,23.60
2006,09,27,12,59,23.60
2006,09,27,13,00,23.50
2006,09,27,13,01,23.40
2006,09,27,13,02,23.40
2006,09,27,13,03,23.40
2006,09,27,13,04,23.40
2006,09,27,13,05,23.40
2006,09,27,13,06,23.40
2006,09,27,13,07,23.30
2006,09,27,13,08,23.30
2006,09,27,13,09,23.40
2006,09,27,13,10,23.40
2006,09,27,13,11,23.40
2006,09,27,13,12,23.40
2006,09,27,13,13,23.40
2006,09,27,13,14,23.50
2006,09,27,13,15,23.60
2006,09,27,13,16,23.60
2006,09,27,13,17,23.60
2006,09,27,13,18,23.60
2006,09,27,13,19,23.70
2006,09,27,13,20,23.70
2006,09,27,13,21,23.70
2006,09,27,13,22,23.80
2006,09,27,13,23,23.90
2006,09,27,13,24,24.00
2006,09,27,13,25,24.10
2006,09,27,13,26,24.10
2006,09,27,13,27,24.20
2006,09,27,13,28,24.20
2006,09,27,13,29,24.30
2006,09,27,13,30,24.30
2006,09,27,13,31,24.30
2006,09,27,13,32,24.30
2006,09,27,13,33,24.30
2006,09,27,13,34,24.40
2006,09,27,13,35,24.40
2006,09,27,13,36,24.30
2006,09,27,13,37,24.30
2006,09,27,13,38,24.30
2006,09,27,13,39,24.30
2006,09,27,13,40,24.30
2006,09,27,13,41,24.30
2006,09,27,13,42,24.30
2006,09,27,13,43,24.30
2006,09,27,13,44,24.30
2006,09,27,13,45,24.30
2006,09,27,13,46,24.30
2006,09,27,13,47,24.30
2006,09,27,13,48,24.30
2006,09,27,13,49,24.20
2006,09,27,13,50,24.20
2006,09,27,13,51,24.20
2006,09,27,13,52,24.10
2006,09,27,13,53,24.00
2006,09,27,13,54,23.90
2006,09,27,13,55,23.80
2006,09,27,13,56,23.80
2006,09,27,13,57,23.90
2006,09,27,13,58,24.00
2006,09,27,13,59,24.10
2006,09,27,14,00,24.10
2006,09,27,14,01,24.10
2006,09,27,14,02,24.20
2006,09,27,14,03,24.20
2006,09,27,14,04,24.30
2006,09,27,14,05,24.30
2006,09,27,14,06,24.40
2006,09,27,14,07,24.40
2006,09,27,14,08,24.50
2006,09,27,14,09,24.50
2006,09,27,14,10,24.60
2006,09,27,14,11,24.60
2006,09,27,14,12,24.60
2006,09,27,14,13,24.60
2006,09,27,14,14,24.60
2006,09,27,14,15,24.60
2006,09,27,14,16,24.50
2006,09,27,14,17,24.50
2006,09,27,14,18,24.50
2006,09,27,14,19,24.50
2006,09,27,14,20,24.50
2006,09,27,14,21,24.60
2006,09,27,14,22,24.60
2006,09,27,14,23,24.60
2006,09,27,14,24,24.70
2006,09,27,14,25,24.70
2006,09,27,14,26,24.70
2006,09,27,14,27,24.70
2006,09,27,14,28,24.70
2006,09,27,14,29,24.50
2006,09,27,14,30,24.40
2006,09,27,14,31,24.30
2006,09,27,14,32,24.30
2006,09,27,14,33,24.30
2006,09,27,14,34,24.30
2006,09,27,14,35,24.40
2006,09,27,14,36,24.40
2006,09,27,14,37,24.40
2006,09,27,14,38,24.40
2006,09,27,14,39,24.50
2006,09,27,14,40,24.60
2006,09,27,14,41,24.60
2006,09,27,14,42,24.70
2006,09,27,14,43,24.70
2006,09,27,14,44,24.70
2006,09,27,14,45,24.60
2006,09,27,14,46,24.60
2006,09,27,14,47,24.60
2006,09,27,14,48,24.80
2006,09,27,14,49,24.90
2006,09,27,14,50,24.80
2006,09,27,14,51,24.80
2006,09,27,14,52,24.70
2006,09,27,14,53,24.80
2006,09,27,14,54,24.90
2006,09,27,14,55,24.90
2006,09,27,14,56,24.90
2006,09,27,14,57,24.90
2006,09,27,14,58,24.90
2006,09,27,14,59,24.90
2006,09,27,15,00,24.80
2006,09,27,15,01,24.80
2006,09,27,15,02,24.80
2006,09,27,15,03,24.80
2006,09,27,15,04,24.70
2006,09,27,15,05,24.50
2006,09,27,15,06,24.40
2006,09,27,15,07,24.30
2006,09,27,15,08,24.30
2006,09,27,15,09,24.30
2006,09,27,15,10,24.40
2006,09,27,15,11,24.40
2006,09,27,15,12,24.10
2006,09,27,15,13,23.90
2006,09,27,15,14,23.70
2006,09,27,15,15,23.60
2006,09,27,15,16,23.60
2006,09,27,15,17,23.70
2006,09,27,15,18,23.70
2006,09,27,15,19,23.70
2006,09,27,15,20,23.70
2006,09,27,15,21,23.70
2006,09,27,15,22,23.70
2006,09,27,15,23,23.70
2006,09,27,15,24,23.70
2006,09,27,15,25,23.70
2006,09,27,15,26,23.80
2006,09,27,15,27,23.70
2006,09,27,15,28,23.70
2006,09,27,15,29,23.70
2006,09,27,15,30,23.70
2006,09,27,15,31,23.70
2006,09,27,15,32,23.80
2006,09,27,15,33,23.90
2006,09,27,15,34,24.00
2006,09,27,15,35,24.10
2006,09,27,15,36,24.20
2006,09,27,15,37,24.20
2006,09,27,15,38,24.10
2006,09,27,15,39,24.10
2006,09,27,15,40,24.10
2006,09,27,15,41,24.10
2006,09,27,15,42,24.10
2006,09,27,15,43,24.10
2006,09,27,15,44,24.10
2006,09,27,15,45,24.10
2006,09,27,15,46,24.00
2006,09,27,15,47,23.80
2006,09,27,15,48,23.80
2006,09,27,15,49,23.70
2006,09,27,15,50,23.70
2006,09,27,15,51,23.50
2006,09,27,15,52,23.40
2006,09,27,15,53,23.40
2006,09,27,15,54,23.50
2006,09,27,15,55,23.60
2006,09,27,15,56,23.70
2006,09,27,15,57,23.70
2006,09,27,15,58,23.70
2006,09,27,15,59,23.70
2006,09,27,16,00,23.70
2006,09,27,16,01,23.70
2006,09,27,16,02,23.70
2006,09,27,16,03,23.70
2006,09,27,16,04,23.70
2006,09,27,16,05,23.70
2006,09,27,16,06,23.70
2006,09,27,16,07,23.70
2006,09,27,16,08,23.70
2006,09,27,16,09,23.70
2006,09,27,16,10,23.60
2006,09,27,16,11,23.50
2006,09,27,16,12,23.30
2006,09,27,16,13,23.30
2006,09,27,16,14,23.30
2006,09,27,16,15,23.30
2006,09,27,16,16,23.30
2006,09,27,16,17,23.30
2006,09,27,16,18,23.30
2006,09,27,16,19,23.40
2006,09,27,16,20,23.40
2006,09,27,16,21,23.50
2006,09,27,16,22,23.60
2006,09,27,16,23,23.70
2006,09,27,16,24,23.70
2006,09,27,16,25,23.70
2006,09,27,16,26,23.60
2006,09,27,16,27,23.60
2006,09,27,16,28,23.60
2006,09,27,16,29,23.60
2006,09,27,16,30,23.60
2006,09,27,16,31,23.60
2006,09,27,16,32,23.60
2006,09,27,16,33,23.70
2006,09,27,16,34,23.80
2006,09,27,16,35,23.80
2006,09,27,16,36,23.70
2006,09,27,16,37,23.60
2006,09,27,16,38,23.30
2006,09,27,16,39,23.30
2006,09,27,16,40,23.20
2006,09,27,16,41,23.20
2006,09,27,16,42,23.20
2006,09,27,16,43,23.20
2006,09,27,16,44,23.20
2006,09,27,16,45,23.20
2006,09,27,16,46,23.20
2006,09,27,16,47,23.20
2006,09,27,16,48,23.20
2006,09,27,16,49,23.20
2006,09,27,16,50,23.20
2006,09,27,16,51,23.30
2006,09,27,16,52,23.30
2006,09,27,16,53,23.30
2006,09,27,16,54,23.40
2006,09,27,16,55,23.40
2006,09,27,16,56,23.40
2006,09,27,16,57,23.40
2006,09,27,16,58,23.50
2006,09,27,16,59,23.50
2006,09,27,17,00,23.40
2006,09,27,17,01,23.30
2006,09,27,17,02,23.40
2006,09,27,17,03,23.40
2006,09,27,17,04,23.40
2006,09,27,17,05,23.40
2006,09,27,17,06,23.50
2006,09,27,17,07,23.60
2006,09,27,17,08,23.60
2006,09,27,17,09,23.60
2006,09,27,17,10,23.50
2006,09,27,17,11,23.40
2006,09,27,17,12,23.40
2006,09,27,17,13,23.50
2006,09,27,17,14,23.60
2006,09,27,17,15,23.60
2006,09,27,17,16,23.50
2006,09,27,17,17,23.40
2006,09,27,17,18,23.40
2006,09,27,17,19,23.40